GFSNIL_prec_radar_153.txt.gz
Reflectivity
-20 -20 -20 -20 -20 -20 -20 -20 -20 -20 -20 -20 -20 10 18 -17 -9 19 11 29 38 24
-20 -20 -20 -20 -20 -20 -20 -20 -2 -9 6 6 6 5 21 -2 4 -18 -11 9 48 42
-20 -20 -20 -20 -20 -20 -20 -3 10 5 -13 -18 21 1 -3 8 -17 -2 -20 -1 24 36
-20 -20 -20 -20 -20 -19 5 18 14 1 -5 -18 21 12 9 -8 17 4 -17 -17 7 35
-20 -20 -20 -20 -20 -20 -13 7 37 40 4 -14 -19 -15 -10 -18 -20 -5 -20 -20 -10 16
-20 -20 -20 -20 -20 -20 -17 5 23 21 33 20 19 -6 -19 -20 -20 -20 -20 -20 -10 7
-20 -20 -20 -20 -20 -20 -20 -5 13 26 15 5 28 10 4 -20 -11 -20 -20 -20 -20 -18
-20 -20 -20 -20 -20 -20 -20 -12 8 24 27 2 35 28 23 15 -20 4 -19 -20 -20 -20
-20 -20 -20 -20 -20 -20 -20 -20 -20 8 29 40 19 32 23 -10 1 -20 17 7 -20 -20
-13 -20 -20 -20 -20 -20 -20 -20 -20 0 23 34 29 37 23 32 7 -17 -20 -20 -20 -20
-20 -0 -20 -20 -20 -20 -20 -20 -19 -0 4 21 16 29 38 33 32 20 21 -16 -20 -20
-20 -1 -20 -20 -20 -20 -20 -20 -20 -14 -14 1 10 14 39 35 34 36 24 14 6 -20
-11 -4 -20 -20 -20 -20 -20 -20 -20 -18 -18 9 15 21 31 40 43 41 36 31 31 11
-20 -20 -20 -20 -20 -20 -20 -20 -20 -18 -19 -20 -1 13 25 36 36 39 25 39 38 21

GFSNIL_prec_radar_159.txt.gz
Reflectivity
-20 -20 -20 -20 -20 -20 -20 -19 -20 -20 -18 -16 -0 -20 -4 5 4 7 9 4 -2 19
-20 -20 -20 -7 -3 -20 -20 -20 -20 -20 -14 -18 -3 -1 1 -15 -14 9 11 13 -10 -20
-20 -20 -20 -20 -20 -12 -20 -20 -20 -20 -20 -10 -5 -0 4 3 3 8 -2 -5 12 -5
-20 -14 -20 -20 -20 -20 -20 -20 -20 -20 -20 -20 -7 -15 -5 -0 -1 2 -20 -20 -18 15
-20 -20 -20 -15 -20 -20 -20 -20 -20 -20 -20 -20 -20 -20 -20 -5 -16 -20 -20 -16 -12 -1
-20 -20 -20 -20 -20 -20 -20 -20 -20 -20 -20 -20 -20 -19 -9 0 -16 -20 -20 -6 -16 -20
-20 -20 -20 -15 -20 -20 -20 -20 -20 -20 -6 -20 -20 -8 -1 5 1 -20 -20 13 6 -13
-20 -20 -20 -20 -20 -20 -20 -20 -20 -20 -20 -20 -8 -9 8 3 4 -20 -20 26 11 -19
-20 -20 -13 -20 -20 -20 -20 -20 -20 -20 -13 2 -1 -3 3 -16 -20 -20 -20 8 33 -11
-20 -20 -20 -20 -20 -20 -20 -20 -20 -8 -2 1 2 -7 0 4 -19 -20 -13 -3 29 17
-5 -20 -20 -20 -20 -20 -20 -9 -3 -13 -11 1 -9 -20 -13 6 -17 -12 -20 5 22 30
-20 -20 -9 -15 -20 -20 -20 -10 -3 -20 -20 -2 -20 -20 -18 8 0 2 -20 4 24 17
-20 -20 -19 -20 -20 -17 -20 -20 -6 -20 -20 -17 1 -20 -17 -11 -13 -10 -20 -4 20 23
-20 -16 -14 -0 -20 -20 -20 -8 -20 -20 -20 -20 -7 -1 -20 -17 7 8 -8 7 5 21

GFSNIL_prec_radar_162.txt.gz
Reflectivity
-20 -20 -20 -20 -20 -20 -20 -20 -20 -20 -20 -20 -0 -20 -13 -1 -19 1 1 2 5 10
-20 -20 -20 -18 -3 -20 -20 -20 -20 -20 -15 -20 -17 -20 -7 -1 -19 1 3 1 5 -8
-20 -20 -7 -0 -19 -12 -16 -12 -0 -20 -16 -20 -4 -20 -20 -20 -19 -5 3 -0 0 4
-20 -8 -14 -20 -20 -20 -17 -15 -20 -20 -16 -8 -20 -17 -18 -20 -20 -17 -7 -17 -5 -9
-0 -3 -20 -20 -20 -20 -20 -20 -20 -20 -12 -6 -20 -20 -18 -20 -19 -2 -3 -12 -6 -20
-20 -20 -20 -20 -8 -20 -20 -20 -20 -20 -12 -1 -1 -18 -20 -20 -16 -12 -20 -3 -16 -20
-20 -20 -15 -20 -20 -20 -20 -20 -20 -20 -20 -2 1 0 -20 1 1 -10 -20 -1 -7 -7
-20 -20 -20 -20 -19 -20 -20 -20 -20 -20 -20 -11 -7 -6 -5 -4 6 -10 -14 -9 -16 -0
-20 -20 -20 -20 -20 -20 -20 -20 -20 -20 -20 -20 -15 -2 -6 2 7 -20 -5 -20 -16 -0
-17 -20 -14 -20 -20 -20 -18 -20 -6 -18 -20 -18 -4 -20 -20 -2 6 2 3 1 4 -20
-6 -8 -16 -20 -20 -20 -17 -15 -20 -20 -20 -12 -20 -20 -20 3 5 -0 -2 3 -13 0
-6 -20 -20 -5 -19 -20 -20 -20 -20 -20 -9 -5 -8 -20 -10 6 5 4 -13 -19 -17 -10
-5 -20 -12 -5 -19 -20 -20 -20 -20 -4 -4 -14 -1 -13 -20 -20 11 10 -9 -4 -19 -2
-20 -4 -20 -20 -19 -20 -20 -17 -5 -2 -13 -4 -8 2 -3 -18 11 12 8 9 8 8

GFSNIL_prec_radar_165.txt.gz
Reflectivity
-20 -20 -20 -20 -20 -20 -20 -20 -20 -20 -12 -20 -20 -20 -20 -1 -1 6 -8 -9 -14 4
-20 -20 -20 -20 -20 -20 -19 -15 -20 -20 -12 -20 -20 -19 -19 -3 -2 -0 2 1 -14 -7
-20 -20 -20 -20 -20 -20 -20 -20 -20 -20 -20 -20 -20 -7 -10 -2 -12 -2 -5 -10 5 -11
-20 -20 -20 -20 -20 -20 -20 -20 -20 -20 -20 -20 -20 -20 -7 -20 -20 -3 -3 -20 4 -9
-20 -20 -20 -20 -20 -20 -20 -20 -20 -20 -20 -20 -20 -8 -20 -5 4 -5 2 -3 4 -8
-20 -20 -20 -20 -20 -20 -20 -20 -20 -20 -20 -20 -20 -19 0 -2 -7 -9 2 2 -19 -9
-20 -20 -20 -20 -20 -20 -20 -20 -20 -20 -20 -20 -20 -17 -17 -13 -0 0 -14 -10 2 2
-20 -20 -20 -20 -20 -20 -20 -20 -20 -20 -18 -20 -20 -20 -20 -5 5 -7 -5 -1 -2 3
-20 -20 -20 -20 -20 -20 -20 -20 -20 -20 -20 -20 -20 -6 -20 1 5 -8 5 5 1 4
-20 -20 -20 -20 -20 -20 -20 -20 -20 -20 -16 -3 -19 -20 -20 -6 2 3 3 4 5 0
-20 -20 -20 -20 -20 -20 -20 -20 -20 -20 -20 -8 -14 -20 -12 -2 -7 2 1 -3 2 6
-20 -20 -20 -20 -20 -20 -20 -20 -20 -20 -13 -5 -1 -20 -20 -20 3 5 -19 -19 -0 4
-20 -20 -20 -15 -20 -20 -20 -20 -20 -20 -5 -13 2 -1 -20 -7 10 9 -11 -18 1 -12
-20 -20 -20 -20 -20 -20 -20 -20 -4 -3 -12 3 -4 4 -4 -4 9 11 2 -19 5 6

GFSNIL_prec_radar_171.txt.gz
Reflectivity
-20 -20 -20 -20 -20 -20 -20 -20 -20 -20 -20 -20 -20 -20 -20 1 -19 9 5 -7 -8 6
-20 -20 -20 -20 -20 -20 -20 -20 -20 -20 -20 -20 -20 -20 -20 -10 -1 -12 -1 4 6 -11
-20 -20 -20 -20 -20 -20 -20 -20 -20 -20 -20 -20 -20 -20 -20 -20 -20 -19 -20 -20 -20 -20
-20 -20 -20 -20 -20 -20 -20 -20 -20 -20 -20 -20 -20 -20 -20 -20 -20 -20 -20 -20 -20 -7
-20 -20 -20 -20 -20 -20 -20 -20 -20 -20 -20 -20 -1 -20 -20 -20 -20 -20 -20 -20 -20 -20
-20 -20 -20 -20 -20 -20 -20 -20 -20 -20 -20 -2 0 -12 -20 -20 -20 -20 -20 -20 -20 -10
-20 -20 -20 -20 -20 -20 -20 -20 -20 -20 -20 -18 1 -3 -20 -20 -20 -20 -20 -20 -15 4
-20 -20 -20 -20 -20 -20 -20 -20 -20 -20 -17 -20 5 -8 -20 -20 -20 -20 -20 -8 2 -20
-20 -20 -20 -20 -20 -20 -20 -20 -20 -20 -20 -20 6 -20 -20 4 -5 -20 -8 -2 -20 -20
-20 -20 -20 -20 -20 -20 -20 -20 -20 -20 -20 -16 8 -8 -15 4 -20 -16 -4 -6 -20 -12
-20 -20 -20 -20 -20 -20 -20 -20 -20 -20 -20 -17 -20 -5 -4 3 -20 -16 -20 -13 -17 3
-20 -20 -20 -20 -20 -20 -20 -20 -20 -20 -20 -20 -20 -20 -0 -1 -20 -13 -5 -19 -20 -1
-20 -20 -20 -20 -20 -20 -20 -20 -20 -20 -20 -20 -2 -17 1 -1 -20 -20 0 -20 -20 -13
-20 -20 -20 -20 -20 -20 -20 -20 -20 -20 -20 -20 -20 -20 2 2 -20 -14 -8 -20 -20 -20

GFSNIL_prec_radar_177.txt.gz
Reflectivity
-20 -20 -20 -20 -20 -20 -20 -20 -20 -20 -20 -20 -20 -20 -20 -20 -20 -20 -20 -20 -20 -20
-20 -20 -20 -20 -20 -20 -20 -20 -20 -20 -20 -20 -20 -20 -20 -20 -20 -20 -20 -20 -20 -20
-20 -18 -20 -20 -20 -20 -20 -20 -20 -20 -20 -20 -20 -20 -20 -20 -20 -20 -20 -20 -20 -20
3 -20 -20 -20 -20 -20 -20 -20 -20 -20 -20 -20 -20 -20 -20 -20 -20 -20 -20 -20 -20 -20
-8 -15 -20 -20 -20 -20 -20 -20 -20 -20 -20 -20 -20 -20 -20 -20 -20 -20 -20 -20 -20 -10
-18 -8 -20 -20 -20 -20 -20 -20 -20 -20 -20 -18 -20 -20 -20 -20 -20 -20 -20 -20 -20 -20
-20 -20 -20 -20 -20 -20 -20 -20 -20 -20 -20 -20 -20 -20 -20 -20 -20 -20 -20 -20 -20 -20
-20 -20 -20 -20 -20 -20 -20 -20 -20 -20 -20 -12 -20 -20 -20 -20 -20 -20 -20 -20 -20 -20
-20 -20 -20 -20 -20 -20 -20 -20 -20 -20 -20 -20 -20 -20 -20 -20 -20 -20 -20 -14 -20 -20
-20 -20 -20 -20 -20 -20 -20 -20 -20 -20 -20 -20 -20 -20 -20 -19 -20 -20 -20 -20 -20 -20
-20 -20 -20 -20 -20 -20 -20 -20 -20 -20 -20 -20 -20 -20 -20 -20 -20 -20 -20 -20 -20 -20
-20 -20 -20 -20 -20 -20 -20 -20 -20 -20 -20 -20 -20 -20 -15 -20 -20 -20 -20 -20 -20 -16
-20 -20 -20 -20 -20 -20 -20 -20 -20 -20 -20 -20 -20 -14 -1 -20 -20 -20 -20 -20 -20 -20
-20 -20 -20 -20 -20 -20 -20 -20 -20 -20 -20 -20 -20 -20 -2 -20 -20 -20 -20 -20 -20 -20

GFSNIL_prec_radar_180.txt.gz
Reflectivity
-20 -7 7 -18 -20 -20 -20 -20 -20 -20 -20 -20 -20 -20 -20 -20 -20 -20 -20 -20 -20 -20
12 15 11 -19 -20 -20 -1 -20 -20 -20 -20 -20 -20 -20 -20 -20 -20 -20 -20 -20 -20 -20
19 13 -16 -20 -20 -8 8 8 -20 -20 -20 -20 -20 -20 -20 -20 -20 -20 -20 -20 -20 -20
9 4 2 -1 10 -16 -20 -20 -20 -20 -20 -20 -20 -20 -20 -20 -20 -20 -20 -20 -20 -20
27 21 20 10 -7 -0 -19 -20 -20 -20 -20 -20 -20 -20 -20 -20 -20 -20 -20 -20 -20 -20
4 -3 -4 -19 -20 -20 -20 -20 -20 -20 -20 -20 -20 -20 -20 -20 -20 -20 -20 -20 -20 -20
9 -5 -20 -20 -20 -20 -20 -20 -20 -20 -20 -19 -20 -20 -20 -20 -20 -20 -20 -20 -20 -20
-20 -20 -20 -20 -20 -20 -20 -20 -20 -20 -20 -20 -20 -20 -20 -20 -20 -20 -20 -20 -20 -20
-20 -20 -20 -20 -20 -20 -20 -20 -20 -20 -20 -20 -20 -20 -20 -20 -20 -20 -20 -20 -20 -20
-7 4 -20 -20 -20 -20 -20 -20 -20 -20 -20 -20 -20 -20 -20 -20 -20 -20 -20 -20 -20 -20
20 20 -19 -20 -20 -20 -20 -20 -20 -20 -20 -20 -20 -20 -20 -20 -20 -20 -20 -20 -20 -20
13 9 -4 -20 -20 -20 -20 -20 -20 -20 -20 -20 -20 -20 -20 -20 -20 -20 -20 -20 -20 -20
7 1 -20 -20 -20 -20 -20 -20 -20 -20 -20 -20 -20 -20 -20 -20 -20 -20 -20 -20 -20 -20
-6 -20 -20 -20 -20 -20 -20 -20 -20 -20 -20 -20 -20 -20 -20 -20 -20 -20 -20 -20 -20 -20

GFSNIL_prec_radar_183.txt.gz
Reflectivity
-6 11 7 -20 -20 -20 -18 5 3 -20 -20 -15 -4 7 -12 -20 -20 -20 -20 -20 -20 -20
-14 5 -19 -1 -2 5 15 15 6 1 -2 -5 -4 -8 -18 -20 -20 -20 -20 -20 -20 -20
-3 -20 -19 -2 -6 -2 6 18 17 16 -1 -20 -20 -20 -20 -20 -20 -20 -20 -20 -20 -20
-12 21 24 14 14 22 22 26 19 8 -15 -20 -20 -20 -20 -20 -20 -20 -20 -20 -20 -20
28 17 18 19 19 21 24 8 -5 -20 -20 -20 -20 -20 -20 -20 -20 -20 -20 -20 -20 -20
17 21 22 15 18 6 -17 -18 -20 -20 -20 -20 -20 -20 -20 -20 -20 -20 -20 -20 -20 -20
30 31 25 14 9 8 -11 -20 -20 -20 -20 -20 -20 -20 -20 -20 -20 -20 -20 -20 -20 -20
28 18 12 2 -13 -20 -20 -20 -20 -20 -20 -20 -20 -20 -20 -20 -20 -20 -20 -20 -20 -20
10 -2 -10 -16 -20 -20 -20 -20 -20 -20 -20 -20 -20 -20 -20 -20 -20 -20 -20 -20 -20 -20
-20 -20 -17 -9 -13 -20 -20 -20 -20 -20 -20 -20 -20 -20 -20 -20 -20 -20 -20 -20 -20 -20
-4 -0 -1 19 16 -6 -20 -20 -20 -20 -20 -20 -14 -14 -20 -20 -20 -20 -20 -20 -20 -20
-0 16 20 18 9 10 -17 -20 -20 -20 -20 -20 -20 -20 -20 -20 -20 -20 -20 -20 -20 -20
16 24 18 16 7 -1 -20 -20 -20 -20 -20 -20 -20 -20 -20 -20 -20 -20 -20 -20 -20 -20
22 21 16 4 -20 -20 -20 -20 -20 -20 -20 -20 -20 -20 -20 -20 -20 -20 -20 -20 -20 -20

GFSNIL_prec_radar_189.txt.gz
Reflectivity
16 -20 -20 5 -20 -20 -20 -20 19 29 29 14 -1 13 0 -20 -20 -20 -20 -20 -20 -20
16 17 3 1 10 -0 11 11 -19 21 16 13 23 24 -3 -20 -11 -6 2 -17 -20 -20
9 17 13 16 17 6 2 -6 -18 -14 3 11 -8 -19 -20 -9 -14 1 -7 -20 -20 -19
16 15 9 1 4 -7 -14 -20 -2 -14 -18 -14 5 8 -13 8 9 -5 -20 -20 -20 -20
17 17 15 12 9 7 -2 -2 -6 -14 -5 1 10 19 17 12 9 -20 -20 -20 -20 -20
12 12 13 11 9 3 17 23 26 33 29 18 16 16 13 9 -8 -20 -19 -20 -20 -20
10 17 16 22 26 21 19 23 20 16 -14 9 12 7 5 -2 -15 -9 -20 -20 -20 -20
12 20 27 31 30 27 29 25 2 -1 11 9 7 7 -15 -20 -13 -20 -20 -20 -20 -20
20 28 27 25 27 23 12 9 10 15 12 11 4 -13 -20 -20 -20 -20 -20 -20 -20 -20
14 16 21 28 30 28 27 18 15 13 4 -16 -20 -20 -20 -20 -20 -20 -20 -20 -20 -20
29 18 26 26 24 22 15 8 -3 -11 -20 -17 -20 -20 -20 -20 -20 -20 -20 -20 -20 -20
28 31 28 18 14 8 11 1 -20 -18 -13 -6 -17 -20 -20 -20 -20 -20 -20 -20 -20 -20
34 22 26 12 12 13 -4 -20 -20 -20 -20 -20 -20 -20 -20 -20 -20 -20 -20 -20 -20 -20
31 34 17 24 20 14 -14 -20 -20 -7 -4 -19 -20 -20 -20 -20 -20 -20 -20 -20 -20 -20